Time,TemperatureF,DewpointF,PressureIn,WindDirection,WindDirectionDegrees,WindSpeedMPH,WindSpeedGustMPH,Humidity,HourlyPrecipIn,Conditions,Clouds,dailyrainin,SoftwareType,DateUTC
2013-08-14 00:02:00,66.1,47.4,29.80,WNW,284,0.0,0.0,51,0.00,CLR,,0.00,WeatherDisplay:10.37,2013-08-14 07:02:00,
2013-08-14 00:07:00,66.1,48.0,29.79,WNW,284,0.0,0.0,52,0.00,CLR,,0.00,WeatherDisplay:10.37,2013-08-14 07:07:00,
2013-08-14 00:12:00,66.1,47.4,29.79,WNW,284,0.0,0.0,51,0.00,CLR,,0.00,WeatherDisplay:10.37,2013-08-14 07:12:00,
2013-08-14 00:17:00,66.1,47.4,29.79,WNW,284,0.0,0.0,51,0.00,CLR,,0.00,WeatherDisplay:10.37,2013-08-14 07:17:00,
2013-08-14 00:22:00,66.0,47.3,29.79,WNW,284,0.0,0.0,51,0.00,CLR,,0.00,WeatherDisplay:10.37,2013-08-14 07:22:00,
2013-08-14 00:27:00,66.0,47.3,29.79,WNW,284,0.0,0.0,51,0.00,CLR,,0.00,WeatherDisplay:10.37,2013-08-14 07:27:00,
2013-08-14 00:32:00,66.0,46.8,29.79,WNW,284,0.0,0.0,50,0.00,CLR,,0.00,WeatherDisplay:10.37,2013-08-14 07:32:00,
2013-08-14 00:37:00,66.0,47.3,29.79,WNW,284,0.0,0.0,51,0.00,CLR,,0.00,WeatherDisplay:10.37,2013-08-14 07:37:00,
2013-08-14 00:42:00,65.8,46.6,29.79,WNW,284,0.0,0.0,50,0.00,CLR,,0.00,WeatherDisplay:10.37,2013-08-14 07:42:00,
2013-08-14 00:47:00,65.8,46.6,29.79,WNW,284,0.0,0.0,50,0.00,CLR,,0.00,WeatherDisplay:10.37,2013-08-14 07:47:00,
2013-08-14 00:52:00,65.8,46.6,29.79,WNW,284,0.0,0.0,50,0.00,CLR,,0.00,WeatherDisplay:10.37,2013-08-14 07:52:00,
2013-08-14 00:57:00,65.6,46.5,29.79,WNW,284,0.0,0.0,50,0.00,CLR,,0.00,WeatherDisplay:10.37,2013-08-14 07:57:00,
2013-08-14 01:02:00,65.6,46.5,29.79,WNW,284,0.0,0.0,50,0.00,CLR,,0.00,WeatherDisplay:10.37,2013-08-14 08:02:00,
2013-08-14 01:07:00,65.8,46.6,29.79,WNW,284,0.0,0.0,50,0.00,CLR,,0.00,WeatherDisplay:10.37,2013-08-14 08:07:00,
2013-08-14 01:12:00,65.8,46.1,29.79,WNW,284,0.0,0.0,49,0.00,CLR,,0.00,WeatherDisplay:10.37,2013-08-14 08:12:00,
2013-08-14 01:17:00,65.8,46.1,29.79,WNW,284,0.0,0.0,49,0.00,CLR,,0.00,WeatherDisplay:10.37,2013-08-14 08:17:00,
2013-08-14 01:22:00,66.0,46.3,29.79,WNW,284,0.0,0.0,49,0.00,CLR,,0.00,WeatherDisplay:10.37,2013-08-14 08:22:00,
2013-08-14 01:27:00,65.8,46.1,29.79,WNW,284,0.0,0.0,49,0.00,CLR,,0.00,WeatherDisplay:10.37,2013-08-14 08:27:00,
2013-08-14 01:32:00,65.2,46.1,29.79,WNW,284,0.0,0.0,50,0.00,CLR,,0.00,WeatherDisplay:10.37,2013-08-14 08:32:00,
2013-08-14 01:37:00,64.3,46.3,29.79,WNW,284,0.0,0.0,52,0.00,CLR,,0.00,WeatherDisplay:10.37,2013-08-14 08:37:00,
2013-08-14 01:42:00,63.2,45.8,29.80,WNW,284,0.0,0.0,53,0.00,CLR,,0.00,WeatherDisplay:10.37,2013-08-14 08:42:00,
2013-08-14 01:47:00,62.6,45.2,29.80,WNW,284,0.0,0.0,53,0.00,CLR,,0.00,WeatherDisplay:10.37,2013-08-14 08:47:00,
2013-08-14 01:52:00,62.1,45.2,29.80,WNW,284,0.0,0.0,54,0.00,CLR,,0.00,WeatherDisplay:10.37,2013-08-14 08:52:00,
2013-08-14 01:57:00,61.8,45.0,29.80,WNW,284,0.0,0.0,54,0.00,CLR,,0.00,WeatherDisplay:10.37,2013-08-14 08:57:00,
2013-08-14 02:02:00,61.8,45.0,29.80,WNW,282,0.0,0.0,54,0.00,CLR,,0.00,WeatherDisplay:10.37,2013-08-14 09:02:00,
2013-08-14 02:07:00,61.6,44.3,29.79,WNW,282,0.0,0.0,53,0.00,CLR,,0.00,WeatherDisplay:10.37,2013-08-14 09:07:00,
2013-08-14 02:12:00,61.6,44.3,29.79,WNW,282,0.0,0.0,53,0.00,CLR,,0.00,WeatherDisplay:10.37,2013-08-14 09:12:00,
2013-08-14 02:17:00,61.6,44.3,29.79,West,281,0.0,0.0,53,0.00,CLR,,0.00,WeatherDisplay:10.37,2013-08-14 09:17:00,
2013-08-14 02:22:00,61.5,44.2,29.79,West,278,0.0,0.0,53,0.00,CLR,,0.00,WeatherDisplay:10.37,2013-08-14 09:22:00,
2013-08-14 02:27:00,61.5,44.2,29.79,West,278,0.0,0.0,53,0.00,CLR,,0.00,WeatherDisplay:10.37,2013-08-14 09:27:00,
2013-08-14 02:32:00,61.5,44.2,29.79,West,278,0.0,0.0,53,0.00,CLR,,0.00,WeatherDisplay:10.37,2013-08-14 09:32:00,
2013-08-14 02:37:00,61.2,44.4,29.79,West,278,0.0,0.0,54,0.00,CLR,,0.00,WeatherDisplay:10.37,2013-08-14 09:37:00,
2013-08-14 02:42:00,61.0,44.2,29.79,West,278,0.0,0.0,54,0.00,CLR,,0.00,WeatherDisplay:10.37,2013-08-14 09:42:00,
2013-08-14 02:47:00,61.0,44.2,29.79,West,278,0.0,0.0,54,0.00,CLR,,0.00,WeatherDisplay:10.37,2013-08-14 09:47:00,
2013-08-14 02:53:00,61.0,43.7,29.79,West,277,0.0,0.0,53,0.00,CLR,,0.00,WeatherDisplay:10.37,2013-08-14 09:53:00,
2013-08-14 02:58:00,60.9,43.6,29.79,West,264,0.0,0.0,53,0.00,CLR,,0.00,WeatherDisplay:10.37,2013-08-14 09:58:00,
2013-08-14 03:03:00,60.5,43.8,29.78,SSW,199,0.0,0.0,54,0.00,CLR,,0.00,WeatherDisplay:10.37,2013-08-14 10:03:00,
2013-08-14 03:08:00,60.2,44.0,29.79,SSW,199,0.0,0.0,55,0.00,CLR,,0.00,WeatherDisplay:10.37,2013-08-14 10:08:00,
2013-08-14 03:13:00,59.6,43.4,29.79,SSW,198,0.0,0.0,55,0.00,CLR,,0.00,WeatherDisplay:10.37,2013-08-14 10:13:00,
2013-08-14 03:18:00,59.3,43.6,29.79,SSW,198,0.0,0.0,56,0.00,CLR,,0.00,WeatherDisplay:10.37,2013-08-14 10:18:00,
2013-08-14 03:23:00,58.9,43.2,29.79,SSW,198,0.0,0.0,56,0.00,CLR,,0.00,WeatherDisplay:10.37,2013-08-14 10:23:00,
2013-08-14 03:28:00,58.7,43.5,29.79,South,175,0.0,0.0,57,0.00,CLR,,0.00,WeatherDisplay:10.37,2013-08-14 10:28:00,
2013-08-14 03:33:00,58.6,43.4,29.79,SSE,168,0.0,0.0,57,0.00,CLR,,0.00,WeatherDisplay:10.37,2013-08-14 10:33:00,
2013-08-14 03:38:00,58.6,43.4,29.79,SSE,168,0.0,0.0,57,0.00,CLR,,0.00,WeatherDisplay:10.37,2013-08-14 10:38:00,
2013-08-14 03:43:00,58.4,43.7,29.80,SSE,168,0.0,0.0,58,0.00,CLR,,0.00,WeatherDisplay:10.37,2013-08-14 10:43:00,
2013-08-14 03:48:00,58.3,43.6,29.80,SSE,168,0.0,0.0,58,0.00,CLR,,0.00,WeatherDisplay:10.37,2013-08-14 10:48:00,
2013-08-14 03:53:00,58.0,43.3,29.80,SSE,168,0.0,0.0,58,0.00,CLR,,0.00,WeatherDisplay:10.37,2013-08-14 10:53:00,
2013-08-14 03:58:00,57.8,43.6,29.80,SSE,168,0.0,0.0,59,0.00,CLR,,0.00,WeatherDisplay:10.37,2013-08-14 10:58:00,
2013-08-14 04:03:00,57.5,43.3,29.80,SSE,168,0.0,0.0,59,0.00,CLR,,0.00,WeatherDisplay:10.37,2013-08-14 11:03:00,
2013-08-14 04:08:00,57.3,43.1,29.80,SSE,168,0.0,0.0,59,0.00,CLR,,0.00,WeatherDisplay:10.37,2013-08-14 11:08:00,
2013-08-14 04:13:00,57.0,42.8,29.80,SSE,168,0.0,0.0,59,0.00,CLR,,0.00,WeatherDisplay:10.37,2013-08-14 11:13:00,
2013-08-14 04:18:00,56.7,42.5,29.79,SSE,168,0.0,0.0,59,0.00,CLR,,0.00,WeatherDisplay:10.37,2013-08-14 11:18:00,
2013-08-14 04:23:00,56.5,42.8,29.79,SSE,168,0.0,0.0,60,0.00,CLR,,0.00,WeatherDisplay:10.37,2013-08-14 11:23:00,
2013-08-14 04:28:00,56.3,42.6,29.79,SSE,168,0.0,0.0,60,0.00,CLR,,0.00,WeatherDisplay:10.37,2013-08-14 11:28:00,
2013-08-14 04:33:00,56.2,42.9,29.79,SSE,165,0.0,0.0,61,0.00,CLR,,0.00,WeatherDisplay:10.37,2013-08-14 11:33:00,
2013-08-14 04:38:00,56.2,42.5,29.79,SSE,165,0.0,0.0,60,0.00,CLR,,0.00,WeatherDisplay:10.37,2013-08-14 11:38:00,
2013-08-14 04:43:00,56.3,42.6,29.79,SSE,165,0.0,0.0,60,0.00,CLR,,0.00,WeatherDisplay:10.37,2013-08-14 11:43:00,
2013-08-14 04:48:00,56.5,42.8,29.79,SSE,164,0.0,0.0,60,0.00,CLR,,0.00,WeatherDisplay:10.37,2013-08-14 11:48:00,
2013-08-14 04:53:00,56.6,42.9,29.79,SSE,164,0.0,0.0,60,0.00,CLR,,0.00,WeatherDisplay:10.37,2013-08-14 11:53:00,
2013-08-14 04:58:00,56.7,43.4,29.79,SSE,162,0.0,0.0,61,0.00,CLR,,0.00,WeatherDisplay:10.37,2013-08-14 11:58:00,
2013-08-14 05:03:00,56.7,43.4,29.79,SSE,160,0.0,0.0,61,0.00,CLR,,0.00,WeatherDisplay:10.37,2013-08-14 12:03:00,
2013-08-14 05:08:00,56.7,43.4,29.80,SW,215,0.0,0.0,61,0.00,CLR,,0.00,WeatherDisplay:10.37,2013-08-14 12:08:00,
2013-08-14 05:13:00,56.7,43.4,29.80,SSE,154,0.0,0.0,61,0.00,CLR,,0.00,WeatherDisplay:10.37,2013-08-14 12:13:00,
2013-08-14 05:18:00,56.7,43.4,29.80,SSW,196,0.0,0.0,61,0.00,CLR,,0.00,WeatherDisplay:10.37,2013-08-14 12:18:00,
2013-08-14 05:23:00,56.9,43.6,29.80,SSE,162,0.0,0.0,61,0.00,CLR,,0.00,WeatherDisplay:10.37,2013-08-14 12:23:00,
2013-08-14 05:28:00,56.9,43.2,29.80,SSE,157,0.0,0.0,60,0.00,CLR,,0.00,WeatherDisplay:10.37,2013-08-14 12:28:00,
2013-08-14 05:33:00,56.9,43.6,29.80,SSW,203,0.0,0.0,61,0.00,CLR,,0.00,WeatherDisplay:10.37,2013-08-14 12:33:00,
2013-08-14 05:38:00,56.9,43.2,29.80,SSE,165,0.0,0.0,60,0.00,CLR,,0.00,WeatherDisplay:10.37,2013-08-14 12:38:00,
2013-08-14 05:43:00,57.0,43.2,29.80,SSW,206,0.0,0.0,60,0.00,CLR,,0.00,WeatherDisplay:10.37,2013-08-14 12:43:00,
2013-08-14 05:48:00,57.0,43.2,29.80,SSW,193,0.0,0.0,60,0.00,CLR,,0.00,WeatherDisplay:10.37,2013-08-14 12:48:00,
2013-08-14 05:53:00,57.0,43.2,29.80,SSE,158,0.0,0.0,60,0.00,CLR,,0.00,WeatherDisplay:10.37,2013-08-14 12:53:00,
2013-08-14 05:58:00,57.0,43.2,29.80,SSE,160,0.0,0.0,60,0.00,CLR,,0.00,WeatherDisplay:10.37,2013-08-14 12:58:00,
2013-08-14 06:03:00,56.7,43.0,29.81,SSE,162,0.0,0.0,60,0.00,CLR,,0.00,WeatherDisplay:10.37,2013-08-14 13:03:00,
2013-08-14 06:08:00,56.6,42.9,29.81,SSE,160,0.0,0.0,60,0.00,CLR,,0.00,WeatherDisplay:10.37,2013-08-14 13:08:00,
2013-08-14 06:13:00,56.5,42.8,29.81,SSE,160,0.0,0.0,60,0.00,CLR,,0.00,WeatherDisplay:10.37,2013-08-14 13:13:00,
2013-08-14 06:18:00,56.5,43.2,29.81,SSE,158,0.0,0.0,61,0.00,CLR,,0.00,WeatherDisplay:10.37,2013-08-14 13:18:00,
2013-08-14 06:23:00,56.6,43.3,29.81,SSW,202,0.0,0.0,61,0.00,CLR,,0.00,WeatherDisplay:10.37,2013-08-14 13:23:00,
2013-08-14 06:28:00,56.6,43.3,29.81,SSW,202,0.0,0.0,61,0.00,CLR,,0.00,WeatherDisplay:10.37,2013-08-14 13:28:00,
2013-08-14 06:33:00,56.7,43.4,29.82,SSW,200,0.0,0.0,61,0.00,CLR,,0.00,WeatherDisplay:10.37,2013-08-14 13:33:00,
2013-08-14 06:38:00,57.2,43.4,29.82,South,189,0.0,0.0,60,0.00,CLR,,0.00,WeatherDisplay:10.37,2013-08-14 13:38:00,
2013-08-14 06:43:00,57.5,43.7,29.82,South,189,0.0,0.0,60,0.00,CLR,,0.00,WeatherDisplay:10.37,2013-08-14 13:43:00,
2013-08-14 06:48:00,57.6,43.8,29.82,South,189,0.0,0.0,60,0.00,CLR,,0.00,WeatherDisplay:10.37,2013-08-14 13:48:00,
2013-08-14 06:53:00,58.0,44.2,29.82,South,169,0.0,0.0,60,0.00,CLR,,0.00,WeatherDisplay:10.37,2013-08-14 13:53:00,
2013-08-14 06:58:00,58.6,44.3,29.81,South,189,0.0,0.0,59,0.00,CLR,,0.00,WeatherDisplay:10.37,2013-08-14 13:58:00,
2013-08-14 07:03:00,59.0,44.7,29.83,SSW,198,0.0,0.0,59,0.00,CLR,,0.00,WeatherDisplay:10.37,2013-08-14 14:03:00,
2013-08-14 07:08:00,59.3,45.0,29.83,SSW,198,0.0,0.0,59,0.00,CLR,,0.00,WeatherDisplay:10.37,2013-08-14 14:08:00,
2013-08-14 07:13:00,59.8,45.4,29.83,SSW,208,0.0,0.0,59,0.00,CLR,,0.00,WeatherDisplay:10.37,2013-08-14 14:13:00,
2013-08-14 07:15:00,59.9,45.1,29.83,SSW,204,0.0,0.0,58,0.00,CLR,,0.00,WeatherDisplay:10.37,2013-08-14 14:15:00,
2013-08-14 07:20:00,60.4,45.5,29.83,SSW,211,0.0,0.0,58,0.00,CLR,,0.00,WeatherDisplay:10.37,2013-08-14 14:20:00,
2013-08-14 07:25:00,60.7,45.8,29.82,SSW,212,0.0,0.0,58,0.00,CLR,,0.00,WeatherDisplay:10.37,2013-08-14 14:25:00,
2013-08-14 07:30:00,61.0,45.6,29.82,SSW,212,0.0,0.0,57,0.00,CLR,,0.00,WeatherDisplay:10.37,2013-08-14 14:30:00,
2013-08-14 07:36:00,61.0,46.1,29.82,SSE,161,0.0,0.0,58,0.00,CLR,,0.00,WeatherDisplay:10.37,2013-08-14 14:36:00,
2013-08-14 07:41:00,61.0,46.6,29.82,SSE,157,0.0,0.0,59,0.00,CLR,,0.00,WeatherDisplay:10.37,2013-08-14 14:41:00,
2013-08-14 07:46:00,60.9,46.5,29.82,SSE,162,0.0,0.0,59,0.00,CLR,,0.00,WeatherDisplay:10.37,2013-08-14 14:46:00,
2013-08-14 07:51:00,61.0,46.6,29.82,SSE,160,0.0,0.0,59,0.00,CLR,,0.00,WeatherDisplay:10.37,2013-08-14 14:51:00,
2013-08-14 07:56:00,61.3,45.9,29.82,SSE,157,0.0,0.0,57,0.00,CLR,,0.00,WeatherDisplay:10.37,2013-08-14 14:56:00,
2013-08-14 08:01:00,62.0,46.1,29.82,SSE,155,0.0,0.0,56,0.00,CLR,,0.00,WeatherDisplay:10.37,2013-08-14 15:01:00,
2013-08-14 08:06:00,62.6,46.2,29.83,SSE,155,0.0,0.0,55,0.00,CLR,,0.00,WeatherDisplay:10.37,2013-08-14 15:06:00,
2013-08-14 08:11:00,63.4,46.5,29.83,SSE,167,0.0,0.0,54,0.00,CLR,,0.00,WeatherDisplay:10.37,2013-08-14 15:11:00,
2013-08-14 08:16:00,64.3,45.8,29.82,SW,224,0.0,0.0,51,0.00,CLR,,0.00,WeatherDisplay:10.37,2013-08-14 15:16:00,
2013-08-14 08:21:00,65.3,46.2,29.82,SSW,203,0.0,0.0,50,0.00,CLR,,0.00,WeatherDisplay:10.37,2013-08-14 15:21:00,
2013-08-14 08:26:00,66.1,47.4,29.82,SSW,203,0.0,0.0,51,0.00,CLR,,0.00,WeatherDisplay:10.37,2013-08-14 15:26:00,
2013-08-14 08:31:00,66.9,48.2,29.82,SSW,203,0.0,0.0,51,0.00,CLR,,0.00,WeatherDisplay:10.37,2013-08-14 15:31:00,
2013-08-14 08:36:00,67.4,46.5,29.81,SSW,206,0.0,0.0,47,0.00,CLR,,0.00,WeatherDisplay:10.37,2013-08-14 15:36:00,
2013-08-14 08:41:00,68.1,46.5,29.81,SSW,206,0.0,0.0,46,0.00,CLR,,0.00,WeatherDisplay:10.37,2013-08-14 15:41:00,
2013-08-14 08:46:00,68.8,48.9,29.80,SSW,206,0.0,0.0,49,0.00,CLR,,0.00,WeatherDisplay:10.37,2013-08-14 15:46:00,
2013-08-14 08:51:00,69.4,48.3,29.80,SSW,206,0.0,0.0,47,0.00,CLR,,0.00,WeatherDisplay:10.37,2013-08-14 15:51:00,
2013-08-14 08:56:00,70.1,47.8,29.80,SSW,206,0.0,0.0,45,0.00,CLR,,0.00,WeatherDisplay:10.37,2013-08-14 15:56:00,
2013-08-14 09:01:00,70.8,47.8,29.80,SSW,206,0.0,0.0,44,0.00,CLR,,0.00,WeatherDisplay:10.37,2013-08-14 16:01:00,
2013-08-14 09:06:00,71.1,49.3,29.81,SSW,206,0.0,0.0,46,0.00,CLR,,0.00,WeatherDisplay:10.37,2013-08-14 16:06:00,
2013-08-14 09:11:00,71.1,46.2,29.81,SSW,212,0.0,0.0,41,0.00,CLR,,0.00,WeatherDisplay:10.37,2013-08-14 16:11:00,
2013-08-14 09:16:00,71.1,46.2,29.81,SSW,198,0.0,0.0,41,0.00,CLR,,0.00,WeatherDisplay:10.37,2013-08-14 16:16:00,
2013-08-14 09:21:00,71.5,49.0,29.80,SSW,198,0.0,0.0,45,0.00,CLR,,0.00,WeatherDisplay:10.37,2013-08-14 16:21:00,
2013-08-14 09:27:00,71.6,47.9,29.80,SSW,198,0.0,0.0,43,0.00,CLR,,0.00,WeatherDisplay:10.37,2013-08-14 16:27:00,
2013-08-14 09:32:00,71.6,46.6,29.80,WSW,241,0.0,0.0,41,0.00,CLR,,0.00,WeatherDisplay:10.37,2013-08-14 16:32:00,
2013-08-14 09:37:00,71.6,46.0,29.80,WSW,244,0.0,0.0,40,0.00,CLR,,0.00,WeatherDisplay:10.37,2013-08-14 16:37:00,
2013-08-14 09:42:00,71.6,45.3,29.80,WSW,244,0.0,0.0,39,0.00,CLR,,0.00,WeatherDisplay:10.37,2013-08-14 16:42:00,
2013-08-14 09:48:00,72.0,47.6,29.80,WSW,244,0.0,0.0,42,0.00,CLR,,0.00,WeatherDisplay:10.37,2013-08-14 16:48:00,
2013-08-14 09:54:00,72.5,46.8,29.80,WSW,244,0.0,0.0,40,0.00,CLR,,0.00,WeatherDisplay:10.37,2013-08-14 16:54:00,
2013-08-14 10:00:00,72.7,43.5,29.81,WSW,253,0.0,0.0,35,0.00,CLR,,0.00,WeatherDisplay:10.37,2013-08-14 17:00:00,
2013-08-14 10:05:00,72.8,45.0,29.81,West,262,0.0,0.0,37,0.00,CLR,,0.00,WeatherDisplay:10.37,2013-08-14 17:05:00,
2013-08-14 10:10:00,73.2,43.1,29.81,West,271,0.0,0.0,34,0.00,CLR,,0.00,WeatherDisplay:10.37,2013-08-14 17:10:00,
2013-08-14 10:16:00,73.5,41.8,29.80,West,271,0.0,0.0,32,0.00,CLR,,0.00,WeatherDisplay:10.37,2013-08-14 17:16:00,
2013-08-14 10:21:00,73.9,42.2,29.80,West,271,0.0,0.0,32,0.00,CLR,,0.00,WeatherDisplay:10.37,2013-08-14 17:21:00,
2013-08-14 10:26:00,74.0,40.6,29.80,West,271,0.0,0.0,30,0.00,CLR,,0.00,WeatherDisplay:10.37,2013-08-14 17:26:00,
2013-08-14 10:31:00,74.6,42.0,29.80,West,270,0.0,0.0,31,0.00,CLR,,0.00,WeatherDisplay:10.37,2013-08-14 17:31:00,
2013-08-14 10:36:00,75.1,40.7,29.80,West,270,0.0,0.0,29,0.00,CLR,,0.00,WeatherDisplay:10.37,2013-08-14 17:36:00,
2013-08-14 10:41:00,75.4,43.5,29.80,West,277,0.0,0.0,32,0.00,CLR,,0.00,WeatherDisplay:10.37,2013-08-14 17:41:00,
2013-08-14 10:46:00,75.6,40.2,29.79,West,277,0.0,0.0,28,0.00,CLR,,0.00,WeatherDisplay:10.37,2013-08-14 17:46:00,
2013-08-14 10:52:00,75.6,39.2,29.79,West,277,0.0,0.0,27,0.00,CLR,,0.00,WeatherDisplay:10.37,2013-08-14 17:52:00,
2013-08-14 10:57:00,76.0,39.6,29.79,West,277,0.0,0.0,27,0.00,CLR,,0.00,WeatherDisplay:10.37,2013-08-14 17:57:00,
2013-08-14 11:02:00,76.5,40.0,29.79,West,278,0.0,0.0,27,0.00,CLR,,0.00,WeatherDisplay:10.37,2013-08-14 18:02:00,
2013-08-14 11:08:00,77.0,38.5,29.79,West,278,0.0,0.0,25,0.00,CLR,,0.00,WeatherDisplay:10.37,2013-08-14 18:08:00,
2013-08-14 11:13:00,77.9,38.2,29.78,West,277,0.0,0.0,24,0.00,CLR,,0.00,WeatherDisplay:10.37,2013-08-14 18:13:00,
2013-08-14 11:18:00,78.6,41.8,29.78,West,277,0.0,0.0,27,0.00,CLR,,0.00,WeatherDisplay:10.37,2013-08-14 18:18:00,
2013-08-14 11:23:00,78.5,40.7,29.77,West,278,0.0,0.0,26,0.00,CLR,,0.00,WeatherDisplay:10.37,2013-08-14 18:23:00,
2013-08-14 11:28:00,79.2,42.3,29.77,West,278,0.0,0.0,27,0.00,CLR,,0.00,WeatherDisplay:10.37,2013-08-14 18:28:00,
2013-08-14 11:33:00,79.0,39.1,29.77,West,278,0.0,0.0,24,0.00,CLR,,0.00,WeatherDisplay:10.37,2013-08-14 18:33:00,
2013-08-14 11:39:00,78.6,38.8,29.77,West,278,0.0,0.0,24,0.00,CLR,,0.00,WeatherDisplay:10.37,2013-08-14 18:39:00,
2013-08-14 11:44:00,78.6,39.8,29.77,West,271,0.0,0.0,25,0.00,CLR,,0.00,WeatherDisplay:10.37,2013-08-14 18:44:00,
2013-08-14 11:50:00,78.9,41.1,29.76,West,272,0.0,0.0,26,0.00,CLR,,0.00,WeatherDisplay:10.37,2013-08-14 18:50:00,
2013-08-14 11:56:00,78.8,40.0,29.76,SSE,152,0.0,0.0,25,0.00,CLR,,0.00,WeatherDisplay:10.37,2013-08-14 18:56:00,
2013-08-14 12:01:00,79.0,43.1,29.76,NNW,328,0.0,0.0,28,0.00,CLR,,0.00,WeatherDisplay:10.37,2013-08-14 19:01:00,
2013-08-14 12:06:00,79.6,39.6,29.75,West,272,0.0,0.0,24,0.00,CLR,,0.00,WeatherDisplay:10.37,2013-08-14 19:06:00,
2013-08-14 12:13:00,80.3,43.3,29.75,West,272,1.1,1.1,27,0.00,CLR,,0.00,WeatherDisplay:10.37,2013-08-14 19:13:00,
2013-08-14 12:18:00,80.9,40.7,29.74,West,268,3.5,3.5,24,0.00,CLR,,0.00,WeatherDisplay:10.37,2013-08-14 19:18:00,
2013-08-14 12:24:00,81.2,41.0,29.74,SW,227,2.3,2.3,24,0.00,CLR,,0.00,WeatherDisplay:10.37,2013-08-14 19:24:00,
2013-08-14 12:29:00,81.8,39.2,29.73,SSW,212,0.0,0.0,22,0.00,CLR,,0.00,WeatherDisplay:10.37,2013-08-14 19:29:00,
2013-08-14 12:35:00,81.8,36.8,29.73,WSW,253,0.0,9.0,20,0.00,CLR,,0.00,WeatherDisplay:10.37,2013-08-14 19:35:00,
2013-08-14 12:40:00,82.2,38.4,29.73,SW,216,0.0,10.0,21,0.00,CLR,,0.00,WeatherDisplay:10.37,2013-08-14 19:40:00,
2013-08-14 12:46:00,82.6,37.5,29.72,SW,229,1.1,1.1,20,0.00,CLR,,0.00,WeatherDisplay:10.37,2013-08-14 19:46:00,
2013-08-14 12:51:00,82.8,36.3,29.72,SSE,151,0.0,0.0,19,0.00,CLR,,0.00,WeatherDisplay:10.37,2013-08-14 19:51:00,
2013-08-14 12:59:00,83.2,39.2,29.72,South,175,3.5,0.0,21,0.00,CLR,,0.00,WeatherDisplay:10.37,2013-08-14 19:59:00,
2013-08-14 13:04:00,84.0,38.6,29.72,West,264,0.0,0.0,20,0.00,CLR,,0.00,WeatherDisplay:10.37,2013-08-14 20:04:00,
2013-08-14 13:09:00,84.3,37.5,29.72,South,191,1.1,1.1,19,0.00,CLR,,0.00,WeatherDisplay:10.37,2013-08-14 20:09:00,
2013-08-14 13:14:00,83.8,38.4,29.72,WNW,298,3.5,3.5,20,0.00,CLR,,0.00,WeatherDisplay:10.37,2013-08-14 20:14:00,
2013-08-14 13:19:00,83.8,38.4,29.72,SSW,208,3.5,0.0,20,0.00,CLR,,0.00,WeatherDisplay:10.37,2013-08-14 20:19:00,
2013-08-14 13:24:00,84.1,37.4,29.71,West,267,1.0,0.0,19,0.00,CLR,,0.00,WeatherDisplay:10.37,2013-08-14 20:24:00,
2013-08-14 13:29:00,83.8,39.7,29.71,West,268,2.3,0.0,21,0.00,CLR,,0.00,WeatherDisplay:10.37,2013-08-14 20:29:00,
2013-08-14 13:35:00,84.1,39.9,29.71,WSW,245,0.0,2.0,21,0.00,CLR,,0.00,WeatherDisplay:10.37,2013-08-14 20:35:00,
2013-08-14 13:40:00,84.5,39.0,29.71,SSE,156,1.0,10.0,20,0.00,CLR,,0.00,WeatherDisplay:10.37,2013-08-14 20:40:00,
2013-08-14 13:46:00,84.5,36.3,29.70,SE,145,4.6,0.0,18,0.00,CLR,,0.00,WeatherDisplay:10.37,2013-08-14 20:46:00,
2013-08-14 13:51:00,84.7,37.9,29.70,West,268,1.1,0.0,19,0.00,CLR,,0.00,WeatherDisplay:10.37,2013-08-14 20:51:00,
2013-08-14 13:56:00,84.7,39.2,29.70,WSW,241,4.6,4.6,20,0.00,CLR,,0.00,WeatherDisplay:10.37,2013-08-14 20:56:00,
2013-08-14 14:01:00,84.5,37.7,29.70,WNW,299,3.5,3.5,19,0.00,CLR,,0.00,WeatherDisplay:10.37,2013-08-14 21:01:00,
2013-08-14 14:07:00,84.1,37.4,29.70,West,280,2.3,2.3,19,0.00,CLR,,0.00,WeatherDisplay:10.37,2013-08-14 21:07:00,
2013-08-14 14:12:00,84.7,36.5,29.70,West,264,1.0,1.0,18,0.00,CLR,,0.00,WeatherDisplay:10.37,2013-08-14 21:12:00,
2013-08-14 14:17:00,84.7,41.6,29.70,West,277,2.3,2.3,22,0.00,CLR,,0.00,WeatherDisplay:10.37,2013-08-14 21:17:00,
2013-08-14 14:22:00,84.9,39.3,29.70,WNW,282,2.0,2.0,20,0.00,CLR,,0.00,WeatherDisplay:10.37,2013-08-14 21:22:00,
2013-08-14 14:27:00,85.3,38.4,29.69,ESE,106,0.0,0.0,19,0.00,CLR,,0.00,WeatherDisplay:10.37,2013-08-14 21:27:00,
2013-08-14 14:32:00,85.9,38.8,29.69,SSE,150,0.0,0.0,19,0.00,CLR,,0.00,WeatherDisplay:10.37,2013-08-14 21:32:00,
2013-08-14 14:37:00,86.3,39.2,29.69,SW,226,4.6,4.6,19,0.00,CLR,,0.00,WeatherDisplay:10.37,2013-08-14 21:37:00,
2013-08-14 14:42:00,85.9,40.2,29.69,WNW,282,1.1,1.1,20,0.00,CLR,,0.00,WeatherDisplay:10.37,2013-08-14 21:42:00,
2013-08-14 14:47:00,85.5,39.8,29.69,West,260,11.5,0.0,20,0.00,CLR,,0.00,WeatherDisplay:10.37,2013-08-14 21:47:00,
2013-08-14 14:52:00,85.5,38.5,29.69,SW,223,0.0,0.0,19,0.00,CLR,,0.00,WeatherDisplay:10.37,2013-08-14 21:52:00,
2013-08-14 14:57:00,85.7,38.7,29.69,West,267,0.0,0.0,19,0.00,CLR,,0.00,WeatherDisplay:10.37,2013-08-14 21:57:00,
2013-08-14 15:02:00,85.7,35.9,29.68,West,268,3.5,3.5,17,0.00,CLR,,0.00,WeatherDisplay:10.37,2013-08-14 22:02:00,
2013-08-14 15:08:00,86.3,39.2,29.69,WSW,251,1.1,0.0,19,0.00,CLR,,0.00,WeatherDisplay:10.37,2013-08-14 22:08:00,
2013-08-14 15:13:00,86.7,39.5,29.68,WNW,282,0.0,0.0,19,0.00,CLR,,0.00,WeatherDisplay:10.37,2013-08-14 22:13:00,
2013-08-14 15:18:00,86.5,39.3,29.68,WSW,251,10.4,0.0,19,0.00,CLR,,0.00,WeatherDisplay:10.37,2013-08-14 22:18:00,
2013-08-14 15:23:00,86.5,38.0,29.68,SW,233,3.5,0.0,18,0.00,CLR,,0.00,WeatherDisplay:10.37,2013-08-14 22:23:00,
2013-08-14 15:28:00,86.7,38.1,29.68,West,268,2.3,2.3,18,0.00,CLR,,0.00,WeatherDisplay:10.37,2013-08-14 22:28:00,
2013-08-14 15:33:00,86.1,39.0,29.68,WNW,284,3.5,0.0,19,0.00,CLR,,0.00,WeatherDisplay:10.37,2013-08-14 22:33:00,
2013-08-14 15:39:00,86.5,38.0,29.68,West,275,2.3,0.0,18,0.00,CLR,,0.00,WeatherDisplay:10.37,2013-08-14 22:39:00,
2013-08-14 15:44:00,86.3,39.2,29.68,WNW,292,3.5,3.5,19,0.00,CLR,,0.00,WeatherDisplay:10.37,2013-08-14 22:44:00,
2013-08-14 15:49:00,85.7,37.3,29.68,NW,305,3.5,3.5,18,0.00,CLR,,0.00,WeatherDisplay:10.37,2013-08-14 22:49:00,
2013-08-14 15:54:00,85.7,38.7,29.68,NW,305,2.0,2.0,19,0.00,CLR,,0.00,WeatherDisplay:10.37,2013-08-14 22:54:00,
2013-08-14 15:59:00,86.1,40.3,29.68,NW,309,0.0,0.0,20,0.00,CLR,,0.00,WeatherDisplay:10.37,2013-08-14 22:59:00,
2013-08-14 16:05:00,86.1,37.6,29.69,WNW,294,3.5,3.5,18,0.00,CLR,,0.00,WeatherDisplay:10.37,2013-08-14 23:05:00,
2013-08-14 16:10:00,85.9,37.5,29.68,WNW,296,0.0,2.0,18,0.00,CLR,,0.00,WeatherDisplay:10.37,2013-08-14 23:10:00,
2013-08-14 16:16:00,86.1,39.0,29.68,WNW,295,0.0,0.0,19,0.00,CLR,,0.00,WeatherDisplay:10.37,2013-08-14 23:16:00,
2013-08-14 16:22:00,85.7,40.0,29.68,WNW,302,10.4,10.4,20,0.00,CLR,,0.00,WeatherDisplay:10.37,2013-08-14 23:22:00,
2013-08-14 16:27:00,85.9,37.5,29.68,WNW,282,1.1,0.0,18,0.00,CLR,,0.00,WeatherDisplay:10.37,2013-08-14 23:27:00,
2013-08-14 16:32:00,85.5,38.5,29.68,WNW,299,3.5,0.0,19,0.00,CLR,,0.00,WeatherDisplay:10.37,2013-08-14 23:32:00,
2013-08-14 16:37:00,85.9,37.5,29.68,WNW,298,1.1,1.1,18,0.00,CLR,,0.00,WeatherDisplay:10.37,2013-08-14 23:37:00,
2013-08-14 16:42:00,85.9,40.2,29.67,WNW,296,0.0,0.0,20,0.00,CLR,,0.00,WeatherDisplay:10.37,2013-08-14 23:42:00,
2013-08-14 16:47:00,86.1,37.6,29.68,WNW,287,0.0,0.0,18,0.00,CLR,,0.00,WeatherDisplay:10.37,2013-08-14 23:47:00,
2013-08-14 16:52:00,86.1,37.6,29.68,WNW,294,2.3,2.3,18,0.00,CLR,,0.00,WeatherDisplay:10.37,2013-08-14 23:52:00,
2013-08-14 16:57:00,85.9,38.8,29.68,NW,318,0.0,0.0,19,0.00,CLR,,0.00,WeatherDisplay:10.37,2013-08-14 23:57:00,
2013-08-14 17:02:00,85.3,40.9,29.68,WNW,282,11.5,11.5,21,0.00,CLR,,0.00,WeatherDisplay:10.37,2013-08-15 00:02:00,
2013-08-14 17:07:00,85.1,42.0,29.68,NW,309,16.1,16.1,22,0.00,CLR,,0.00,WeatherDisplay:10.37,2013-08-15 00:07:00,
2013-08-14 17:12:00,84.9,39.3,29.68,WNW,302,16.1,16.1,20,0.00,CLR,,0.00,WeatherDisplay:10.37,2013-08-15 00:12:00,
2013-08-14 17:17:00,84.7,40.4,29.68,WNW,302,11.5,11.5,21,0.00,CLR,,0.00,WeatherDisplay:10.37,2013-08-15 00:17:00,
2013-08-14 17:22:00,84.5,40.3,29.68,WNW,294,3.0,3.0,21,0.00,CLR,,0.00,WeatherDisplay:10.37,2013-08-15 00:22:00,
2013-08-14 17:27:00,84.1,42.3,29.69,WNW,289,1.1,1.1,23,0.00,CLR,,0.00,WeatherDisplay:10.37,2013-08-15 00:27:00,
2013-08-14 17:32:00,84.0,41.1,29.69,WNW,291,2.3,2.3,22,0.00,CLR,,0.00,WeatherDisplay:10.37,2013-08-15 00:32:00,
2013-08-14 17:38:00,83.8,40.9,29.69,WNW,298,1.1,1.1,22,0.00,CLR,,0.00,WeatherDisplay:10.37,2013-08-15 00:38:00,
2013-08-14 17:43:00,83.4,40.6,29.69,NW,309,2.3,2.3,22,0.00,CLR,,0.00,WeatherDisplay:10.37,2013-08-15 00:43:00,
2013-08-14 17:48:00,83.2,40.4,29.69,WNW,291,1.1,0.0,22,0.00,CLR,,0.00,WeatherDisplay:10.37,2013-08-15 00:48:00,
2013-08-14 17:53:00,83.2,42.6,29.69,NW,304,2.0,2.0,24,0.00,CLR,,0.00,WeatherDisplay:10.37,2013-08-15 00:53:00,
2013-08-14 17:58:00,83.0,40.2,29.69,NW,325,2.3,0.0,22,0.00,CLR,,0.00,WeatherDisplay:10.37,2013-08-15 00:58:00,
2013-08-14 18:03:00,83.2,41.5,29.69,West,280,1.0,1.0,23,0.00,CLR,,0.00,WeatherDisplay:10.37,2013-08-15 01:03:00,
2013-08-14 18:08:00,83.2,40.4,29.69,WNW,291,2.3,0.0,22,0.00,CLR,,0.00,WeatherDisplay:10.37,2013-08-15 01:08:00,
2013-08-14 18:13:00,83.0,40.2,29.69,WNW,285,3.5,3.5,22,0.00,CLR,,0.00,WeatherDisplay:10.37,2013-08-15 01:13:00,
2013-08-14 18:18:00,82.6,42.1,29.69,WNW,288,2.0,2.0,24,0.00,CLR,,0.00,WeatherDisplay:10.37,2013-08-15 01:18:00,
2013-08-14 18:23:00,82.2,41.8,29.70,West,280,1.1,1.1,24,0.00,CLR,,0.00,WeatherDisplay:10.37,2013-08-15 01:23:00,
2013-08-14 18:28:00,81.8,41.5,29.70,WNW,288,3.0,3.0,24,0.00,CLR,,0.00,WeatherDisplay:10.37,2013-08-15 01:28:00,
2013-08-14 18:33:00,81.8,41.5,29.70,WNW,282,3.5,3.5,24,0.00,CLR,,0.00,WeatherDisplay:10.37,2013-08-15 01:33:00,
2013-08-14 18:38:00,81.6,43.4,29.70,WNW,301,1.0,1.0,26,0.00,CLR,,0.00,WeatherDisplay:10.37,2013-08-15 01:38:00,
2013-08-14 18:43:00,81.4,43.2,29.70,WNW,295,2.3,2.3,26,0.00,CLR,,0.00,WeatherDisplay:10.37,2013-08-15 01:43:00,
2013-08-14 18:48:00,80.7,43.6,29.70,WNW,282,3.5,3.5,27,0.00,CLR,,0.00,WeatherDisplay:10.37,2013-08-15 01:48:00,
2013-08-14 18:53:00,80.3,44.2,29.71,WNW,284,2.3,0.0,28,0.00,CLR,,0.00,WeatherDisplay:10.37,2013-08-15 01:53:00,
2013-08-14 18:58:00,79.9,43.9,29.71,West,275,1.0,0.0,28,0.00,CLR,,0.00,WeatherDisplay:10.37,2013-08-15 01:58:00,
2013-08-14 19:03:00,79.6,43.6,29.70,West,277,0.0,0.0,28,0.00,CLR,,0.00,WeatherDisplay:10.37,2013-08-15 02:03:00,
2013-08-14 19:08:00,79.0,44.0,29.71,WNW,284,2.3,2.3,29,0.00,CLR,,0.00,WeatherDisplay:10.37,2013-08-15 02:08:00,
2013-08-14 19:13:00,78.5,44.5,29.71,West,278,2.3,2.3,30,0.00,CLR,,0.00,WeatherDisplay:10.37,2013-08-15 02:13:00,
2013-08-14 19:18:00,78.1,45.0,29.71,WNW,295,0.0,0.0,31,0.00,CLR,,0.00,WeatherDisplay:10.37,2013-08-15 02:18:00,
2013-08-14 19:23:00,77.7,44.6,29.72,West,278,1.1,1.1,31,0.00,CLR,,0.00,WeatherDisplay:10.37,2013-08-15 02:23:00,
2013-08-14 19:29:00,77.2,44.2,29.73,WNW,285,1.1,1.1,31,0.00,CLR,,0.00,WeatherDisplay:10.37,2013-08-15 02:29:00,
2013-08-14 19:34:00,77.0,44.9,29.73,WNW,294,0.0,0.0,32,0.00,CLR,,0.00,WeatherDisplay:10.37,2013-08-15 02:34:00,
2013-08-14 19:39:00,76.8,45.5,29.73,WNW,294,0.0,0.0,33,0.00,CLR,,0.00,WeatherDisplay:10.37,2013-08-15 02:39:00,
2013-08-14 19:44:00,76.5,46.0,29.73,WNW,294,0.0,0.0,34,0.00,CLR,,0.00,WeatherDisplay:10.37,2013-08-15 02:44:00,
2013-08-14 19:49:00,76.3,45.9,29.73,WNW,292,0.0,0.0,34,0.00,CLR,,0.00,WeatherDisplay:10.37,2013-08-15 02:49:00,
2013-08-14 19:54:00,76.1,45.7,29.73,WNW,292,0.0,0.0,34,0.00,CLR,,0.00,WeatherDisplay:10.37,2013-08-15 02:54:00,
2013-08-14 19:59:00,76.0,46.4,29.73,WNW,294,0.0,0.0,35,0.00,CLR,,0.00,WeatherDisplay:10.37,2013-08-15 02:59:00,
2013-08-14 20:04:00,75.6,45.2,29.71,WNW,294,0.0,0.0,34,0.00,CLR,,0.00,WeatherDisplay:10.37,2013-08-15 03:04:00,
2013-08-14 20:09:00,75.4,45.8,29.71,WNW,294,0.0,0.0,35,0.00,CLR,,0.00,WeatherDisplay:10.37,2013-08-15 03:09:00,
2013-08-14 20:14:00,75.1,46.3,29.71,WNW,294,0.0,0.0,36,0.00,CLR,,0.00,WeatherDisplay:10.37,2013-08-15 03:14:00,
2013-08-14 20:19:00,74.6,46.6,29.71,WNW,294,0.0,0.0,37,0.00,CLR,,0.00,WeatherDisplay:10.37,2013-08-15 03:19:00,
2013-08-14 20:24:00,74.0,46.8,29.73,WNW,294,0.0,0.0,38,0.00,CLR,,0.00,WeatherDisplay:10.37,2013-08-15 03:24:00,
2013-08-14 20:29:00,73.9,46.7,29.73,WNW,294,0.0,0.0,38,0.00,CLR,,0.00,WeatherDisplay:10.37,2013-08-15 03:29:00,
2013-08-14 20:34:00,73.7,46.5,29.73,WNW,294,0.0,0.0,38,0.00,CLR,,0.00,WeatherDisplay:10.37,2013-08-15 03:34:00,
2013-08-14 20:39:00,73.3,46.2,29.73,WNW,294,0.0,0.0,38,0.00,CLR,,0.00,WeatherDisplay:10.37,2013-08-15 03:39:00,
2013-08-14 20:44:00,73.2,46.8,29.73,NW,306,0.0,0.0,39,0.00,CLR,,0.00,WeatherDisplay:10.37,2013-08-15 03:44:00,
2013-08-14 20:49:00,72.8,46.4,29.73,West,281,0.0,0.0,39,0.00,CLR,,0.00,WeatherDisplay:10.37,2013-08-15 03:49:00,
2013-08-14 20:54:00,72.7,46.3,29.74,West,281,0.0,0.0,39,0.00,CLR,,0.00,WeatherDisplay:10.37,2013-08-15 03:54:00,
2013-08-14 20:59:00,72.5,46.8,29.74,West,280,0.0,0.0,40,0.00,CLR,,0.00,WeatherDisplay:10.37,2013-08-15 03:59:00,
2013-08-14 21:01:00,72.5,46.8,29.74,West,280,0.0,0.0,40,0.00,CLR,,0.00,WeatherDisplay:10.37,2013-08-15 04:01:00,
2013-08-14 21:03:00,72.3,46.6,29.74,West,281,0.0,0.0,40,0.00,CLR,,0.00,WeatherDisplay:10.37,2013-08-15 04:03:00,
2013-08-14 21:05:00,72.3,46.6,29.74,West,280,0.0,0.0,40,0.00,CLR,,0.00,WeatherDisplay:10.37,2013-08-15 04:05:00,
2013-08-14 21:10:00,72.0,47.0,29.75,West,280,0.0,0.0,41,0.00,CLR,,0.00,WeatherDisplay:10.37,2013-08-15 04:10:00,
2013-08-14 21:12:00,72.0,47.0,29.75,West,281,0.0,0.0,41,0.00,CLR,,0.00,WeatherDisplay:10.37,2013-08-15 04:12:00,
2013-08-14 21:17:00,71.6,46.6,29.75,West,281,0.0,0.0,41,0.00,CLR,,0.00,WeatherDisplay:10.37,2013-08-15 04:17:00,
2013-08-14 21:22:00,71.3,47.0,29.75,West,281,0.0,0.0,42,0.00,CLR,,0.00,WeatherDisplay:10.37,2013-08-15 04:22:00,
2013-08-14 21:27:00,70.9,47.3,29.75,West,280,0.0,0.0,43,0.00,CLR,,0.00,WeatherDisplay:10.37,2013-08-15 04:27:00,
2013-08-14 21:32:00,70.8,47.2,29.75,West,280,0.0,0.0,43,0.00,CLR,,0.00,WeatherDisplay:10.37,2013-08-15 04:32:00,
2013-08-14 21:37:00,70.4,46.8,29.76,West,281,0.0,0.0,43,0.00,CLR,,0.00,WeatherDisplay:10.37,2013-08-15 04:37:00,
2013-08-14 21:42:00,70.3,47.3,29.76,West,281,0.0,0.0,44,0.00,CLR,,0.00,WeatherDisplay:10.37,2013-08-15 04:42:00,
2013-08-14 21:47:00,69.9,47.0,29.76,West,281,0.0,0.0,44,0.00,CLR,,0.00,WeatherDisplay:10.37,2013-08-15 04:47:00,
2013-08-14 21:52:00,69.8,46.9,29.76,West,281,0.0,0.0,44,0.00,CLR,,0.00,WeatherDisplay:10.37,2013-08-15 04:52:00,
2013-08-14 21:57:00,69.9,46.4,29.76,West,280,0.0,0.0,43,0.00,CLR,,0.00,WeatherDisplay:10.37,2013-08-15 04:57:00,
2013-08-14 22:02:00,69.9,47.0,29.75,West,280,0.0,0.0,44,0.00,CLR,,0.00,WeatherDisplay:10.37,2013-08-15 05:02:00,
2013-08-14 22:07:00,69.8,46.9,29.75,West,280,0.0,0.0,44,0.00,CLR,,0.00,WeatherDisplay:10.37,2013-08-15 05:07:00,
2013-08-14 22:12:00,69.6,46.7,29.75,West,280,0.0,0.0,44,0.00,CLR,,0.00,WeatherDisplay:10.37,2013-08-15 05:12:00,
2013-08-14 22:17:00,69.4,47.1,29.75,West,280,0.0,0.0,45,0.00,CLR,,0.00,WeatherDisplay:10.37,2013-08-15 05:17:00,
2013-08-14 22:22:00,69.1,46.9,29.75,West,280,0.0,0.0,45,0.00,CLR,,0.00,WeatherDisplay:10.37,2013-08-15 05:22:00,
2013-08-14 22:27:00,68.8,47.2,29.76,West,280,0.0,0.0,46,0.00,CLR,,0.00,WeatherDisplay:10.37,2013-08-15 05:27:00,
2013-08-14 22:32:00,68.3,47.3,29.77,West,280,0.0,0.0,47,0.00,CLR,,0.00,WeatherDisplay:10.37,2013-08-15 05:32:00,
2013-08-14 22:37:00,67.8,47.4,29.77,West,280,0.0,0.0,48,0.00,CLR,,0.00,WeatherDisplay:10.37,2013-08-15 05:37:00,
2013-08-14 22:42:00,67.1,47.3,29.77,West,280,0.0,0.0,49,0.00,CLR,,0.00,WeatherDisplay:10.37,2013-08-15 05:42:00,
2013-08-14 22:47:00,66.8,47.6,29.76,West,280,0.0,0.0,50,0.00,CLR,,0.00,WeatherDisplay:10.37,2013-08-15 05:47:00,
2013-08-14 22:52:00,66.3,47.1,29.77,West,280,0.0,0.0,50,0.00,CLR,,0.00,WeatherDisplay:10.37,2013-08-15 05:52:00,
2013-08-14 22:57:00,66.1,46.9,29.77,West,280,0.0,0.0,50,0.00,CLR,,0.00,WeatherDisplay:10.37,2013-08-15 05:57:00,
2013-08-14 23:02:00,66.1,46.9,29.77,West,280,0.0,0.0,50,0.00,CLR,,0.00,WeatherDisplay:10.37,2013-08-15 06:02:00,
2013-08-14 23:07:00,66.1,46.9,29.77,West,280,0.0,0.0,50,0.00,CLR,,0.00,WeatherDisplay:10.37,2013-08-15 06:07:00,
2013-08-14 23:12:00,65.8,47.2,29.77,West,280,0.0,0.0,51,0.00,CLR,,0.00,WeatherDisplay:10.37,2013-08-15 06:12:00,
2013-08-14 23:17:00,65.6,47.0,29.77,West,280,0.0,0.0,51,0.00,CLR,,0.00,WeatherDisplay:10.37,2013-08-15 06:17:00,
2013-08-14 23:22:00,65.5,46.9,29.77,West,280,0.0,0.0,51,0.00,CLR,,0.00,WeatherDisplay:10.37,2013-08-15 06:22:00,
2013-08-14 23:27:00,65.5,46.9,29.77,West,280,0.0,0.0,51,0.00,CLR,,0.00,WeatherDisplay:10.37,2013-08-15 06:27:00,
2013-08-14 23:32:00,65.3,46.7,29.77,West,280,0.0,0.0,51,0.00,CLR,,0.00,WeatherDisplay:10.37,2013-08-15 06:32:00,
2013-08-14 23:37:00,65.2,46.6,29.77,West,280,0.0,0.0,51,0.00,CLR,,0.00,WeatherDisplay:10.37,2013-08-15 06:37:00,
2013-08-14 23:42:00,65.0,46.9,29.77,West,280,0.0,0.0,52,0.00,CLR,,0.00,WeatherDisplay:10.37,2013-08-15 06:42:00,
2013-08-14 23:47:00,64.8,46.8,29.77,West,280,0.0,0.0,52,0.00,CLR,,0.00,WeatherDisplay:10.37,2013-08-15 06:47:00,
2013-08-14 23:52:00,64.8,46.8,29.77,West,280,0.0,0.0,52,0.00,CLR,,0.00,WeatherDisplay:10.37,2013-08-15 06:52:00,
2013-08-14 23:57:00,64.7,46.7,29.77,West,280,0.0,0.0,52,0.00,CLR,,0.00,WeatherDisplay:10.37,2013-08-15 06:57:00,